Flag for Italy Weather past 2 weeks in Venice, Italy

Now
64 °F

Fog.


Feels Like: 64 °F
Forecast: 65 / 76 °F
Wind: 5 mph from Northwest

Location: Venice / Tessera

Current Time: Sep 20, 2014 at 10:40:22 AM

Latest Report: Sep 20, 2014 at 9:50 AM


Visibility: 2 mi

Pressure: 30.01 "Hg

Humidity: 100%

Dew point: 64 °F

Location of VeniceLocation

Historic Weather in Venice — Graph

°F

Venice temperature yesterday

Maximum temperature yesterday: 73 °F (at 3:20 PM)
Minimum temperature yesterday: 64 °F (at 12:20 AM)
Average temperature yesterday: 68 °F

Past Weeks' High & Low Weather Summary

 TemperatureHumidityPressure
High84 °F (Sep 7, 2:50 AM)100% (Sep 10, 7:50 AM)30.09 "Hg (Sep 10, 7:50 AM)
Low57 °F (Sep 14, 7:20 AM)45% (Sep 7, 2:50 AM)29.80 "Hg (Sep 11, 5:20 AM)
Average68 °F77%29.95 "Hg
* Reported Sep 5 9:20 AM — Sep 20 9:20 AM, Venice, Weather by CustomWeather, © 2014

Note: Actual official high and low records may vary slightly from our data, if they occured in-between our weather recording intervals... More about our weather records

Advertising

Venice weather history for previous 24 hours

 ConditionsComfort  
Time TempWeatherWind HumidityBarometerVisibility
9:20 AM
Sep 20
66 °FFog.6 mph94%30.01 "Hg2 mi
8:50 AM66 °FFog.3 mph94%30.01 "Hg2 mi
8:20 AM64 °FFog.2 mph100%30.01 "Hg2 mi
7:50 AM64 °FFog.5 mph100%30.01 "Hg2 mi
7:20 AM64 °FFog.6 mph94%30.01 "Hg2 mi
6:50 AM64 °FFog.2 mph94%30.01 "Hg2 mi
6:20 AM64 °FFog.2 mph94%30.01 "Hg2 mi
5:50 AM64 °FFog.3 mph94%30.01 "Hg2 mi
5:20 AM64 °FFog.3 mph94%30.01 "Hg2 mi
4:50 AM64 °FFog.5 mph94%30.01 "Hg2 mi
4:20 AM66 °FFog.2 mph88%30.04 "Hg2 mi
3:50 AM66 °FFog.5 mph88%30.04 "Hg2 mi
2:50 AM66 °FPassing clouds.5 mph88%30.07 "Hg4 mi
2:20 AM66 °FPassing clouds.5 mph88%30.07 "Hg4 mi
1:50 AM66 °FPassing clouds.5 mph88%30.07 "Hg4 mi
1:20 AM66 °FPassing clouds.6 mph88%30.07 "Hg4 mi
12:50 AM66 °FPassing clouds.7 mph88%30.07 "Hg4 mi
12:20 AM66 °FPassing clouds.8 mph94%30.07 "Hg4 mi
11:50 PM
Sep 19
66 °FPassing clouds.8 mph94%30.09 "Hg4 mi
11:20 PM66 °FFog.6 mph94%30.09 "Hg3 mi
10:50 PM66 °FFog.6 mph94%30.07 "Hg3 mi
10:20 PM66 °FPassing clouds.6 mph100%30.07 "Hg5 mi
9:50 PM68 °FPassing clouds.6 mph94%30.09 "Hg6 mi
9:20 PM68 °FPassing clouds.5 mph94%30.09 "Hg6 mi
8:50 PM66 °FPassing clouds.6 mph94%30.09 "Hg4 mi
8:20 PM68 °FPassing clouds.3 mph94%30.07 "Hg4 mi
7:50 PM68 °FThundershowers. Partly sunny.3 mph94%30.07 "Hg4 mi
7:20 PM68 °FThunderstorms. Partly sunny.12 mph88%30.07 "Hg4 mi
6:50 PM68 °FBroken clouds.9 mph88%30.07 "HgN/A
6:20 PM70 °FBroken clouds.10 mph83%30.07 "HgN/A
5:50 PM70 °FBroken clouds.8 mph83%30.07 "HgN/A
5:20 PM72 °FSnow. Broken clouds.8 mph78%30.07 "HgN/A
4:50 PM72 °FBroken clouds.8 mph78%30.07 "HgN/A
4:20 PM72 °FBroken clouds.7 mph78%30.07 "HgN/A
3:50 PM72 °FBroken clouds.7 mph73%30.04 "HgN/A
3:20 PM73 °FBroken clouds.6 mph65%30.07 "HgN/A
2:50 PM72 °FBroken clouds.6 mph65%30.09 "HgN/A
2:20 PM72 °FBroken clouds.5 mph69%30.09 "Hg6 mi
1:50 PM72 °FBroken clouds.3 mph69%30.09 "Hg6 mi
1:20 PM72 °FPartly sunny.3 mph69%30.09 "Hg5 mi
12:50 PM72 °FPartly sunny.5 mph69%30.09 "Hg5 mi
12:20 PM72 °FPartly sunny.5 mph73%30.09 "Hg5 mi
11:50 AM72 °FPartly sunny.3 mph73%30.09 "Hg5 mi
11:20 AM72 °FScattered clouds.3 mph69%30.09 "Hg5 mi
10:50 AM70 °FScattered clouds.5 mph78%30.09 "Hg5 mi
10:20 AM70 °FScattered clouds.7 mph83%30.09 "Hg4 mi
Weather by CustomWeather, © 2014

See weather overviewHow to use our weather pages